Tracking 19570 objects as of 22-Feb-2019
HD Live streaming from Space Station
objects crossing your sky now

SCOUT G-1 DEB

Track SCOUT G-1 DEB now!
10-day predictions


NORAD ID: 19181
Int'l Code: 1988-033G
Perigee: 998.7 km
Apogee: 1,375.8 km
Inclination: 89.9 °
Period: 109.0 minutes
Semi major axis: 7558 km
RCS: 0.0549 m2 (small)
Launch date: April 26, 1988
Source: United States (US)
Launch site: AIR FORCE WESTERN TEST RANGE (AFWTR)

Note: This is SATELLITE DEBRIS
aabbcc
Your satellite tracking list
Your tracking list is empty




NASA's NSSDC Master Catalog

Two Line Element Set (TLE):
1 19181U 88033G   19048.80203865  .00000057  00000-0  10483-3 0  9997
2 19181  89.8904 314.6645 0249421 278.3129 150.8391 13.21206759484068
Source of the keplerian elements: AFSPC